This is the latest recevied weather packets stored in our database for station/object KA1JKB. If no packets are shown the sender has not sent any weather packets the latest 10 day(s).
| Time | Temp. | Humidity | Pressure | Rain* | Wind** | Luminosity | Snow |
|---|---|---|---|---|---|---|---|
| 1788447029 | 26.11° C | 84% | 1012.6 hPa | 0 mm | - | 118 W/m² | - |
| 1788446727 | 25.56° C | 83% | 1012.7 hPa | 0 mm | - | 248 W/m² | - |
| 1788446424 | 25.56° C | 88% | 1012.6 hPa | 0 mm | - | 454 W/m² | - |
| 1788446120 | 25.56° C | 90% | 1012.7 hPa | 0 mm | - | 209 W/m² | - |
| 1788445815 | 25° C | 91% | 1012.6 hPa | 0 mm | - | 219 W/m² | - |
| 1788445511 | 25° C | 94% | 1012.6 hPa | 0 mm | - | 208 W/m² | - |
| 1788445207 | 24.44° C | 93% | 1012.9 hPa | 0 mm | - | 162 W/m² | - |
| 1788444903 | 24.44° C | 93% | 1012.9 hPa | 0 mm | - | 85 W/m² | - |
| 1788444598 | 24.44° C | 94% | 1013 hPa | 0 mm | - | 51 W/m² | - |
| 1788444293 | 24.44° C | 97% | 1013.2 hPa | 0 mm | - | 28 W/m² | - |
| 1788443988 | 24.44° C | 98% | 1013.2 hPa | 0 mm | - | 16 W/m² | - |
| 1788443684 | 25° C | 99% | 1013.2 hPa | 0 mm | - | 11 W/m² | - |
| 1788443384 | 25° C | 99% | 1012.5 hPa | 0 mm | - | 15 W/m² | - |
| 1788443083 | 25° C | 99% | 1012.4 hPa | 0 mm | - | 15 W/m² | - |
| 1788442780 | 25° C | 99% | 1012.3 hPa | 0 mm | - | 14 W/m² | - |
| 1788442477 | 25° C | 99% | 1012.4 hPa | 0 mm | - | 14 W/m² | - |
| 1788442172 | 25° C | 98% | 1012.8 hPa | 0 mm | - | 17 W/m² | - |
| 1788441868 | 25.56° C | 98% | 1012.8 hPa | 0 mm | - | 20 W/m² | - |
| 1788441567 | 25.56° C | 97% | 1012.8 hPa | 0 mm | - | 25 W/m² | - |
| 1788441262 | 25.56° C | 98% | 1012.7 hPa | 0 mm | - | 37 W/m² | - |
| 1788440961 | 25.56° C | 98% | 1012.9 hPa | 0 mm | - | 64 W/m² | - |
| 1788440656 | 25.56° C | 99% | 1012.7 hPa | 0 mm | - | 111 W/m² | - |
| 1788440355 | 25.56° C | 99% | 1012.8 hPa | 0 mm | - | 141 W/m² | - |
| 1788440050 | 25.56° C | 99% | 1012.6 hPa | 0 mm | - | 152 W/m² | - |
| 1788439749 | 25.56° C | 99% | 1012.6 hPa | 0 mm | - | 201 W/m² | - |
* Rain latest hour (hover to see other rain measurements)
** Current wind speed in m/s (hover to see current wind gust speed)